sat.trackr.live / text

‹ back to catalog

STARLINK-35525

NORAD 66134 · 2025-237W

PAYLOAD ACTIVE UNKNOWN

§ Identity

Operator
Country
US
Launch date
2025-10-22
Launch site
AFWTR
Launch vehicle
Mass (kg)
RCS (m²)

Purposes: comms

External: N2YO · Heavens-Above · Gunter

§ Orbital elements

Epoch: 2026-09-20T13:56:13.096032Z

Period
93.85 min
Inclination
53.1594°
Eccentricity
0.0001988
Mean motion
15.34396702 rev/d
Perigee alt
461.4 km
Apogee alt
464.1 km
Semi-major
6,840.9 km
B*
7.5573e-4
RAAN
211.2237°
Arg perigee
84.5275°
Mean anomaly
275.5955°
Rev number
5,249

§ Raw data

STARLINK-355251 66134U 25237W   26263.58070713  .00025241  00000+0  75573-3 0  99922 66134  53.1594 211.2237 0001988  84.5275 275.5955 15.34396702 52492

JSON: /api/v1/satellites/66134 · /tle

For live sub-satellite position, see the globe view (requires WebGL).

§ Visibility from observer

Set your observer location to see the next 7 days of passes ≥ 10°. The values pass through the URL so the page stays shareable.

No JS? Fill the form by hand. The geolocation button needs JavaScript.